This is the latest recevied weather packets stored in our database for station/object NK2J. If no packets are shown the sender has not sent any weather packets the latest 10 day(s).
| Time | Temp. | Humidity | Pressure | Rain* | Wind** | Luminosity | Snow |
|---|---|---|---|---|---|---|---|
| 1777780264 | 27.22° C | 22% | 1011.9 hPa | 0 mm | - | 0 W/m² | - |
| 1777779961 | 27.22° C | 21% | 1011.9 hPa | 0 mm | - | 0 W/m² | - |
| 1777779658 | 27.22° C | 21% | 1011.8 hPa | 0 mm | - | 0 W/m² | - |
| 1777779355 | 26.67° C | 22% | 1011.8 hPa | 0 mm | - | 0 W/m² | - |
| 1777779053 | 27.22° C | 21% | 1011.8 hPa | 0 mm | - | 0 W/m² | - |
| 1777778751 | 27.22° C | 21% | 1011.5 hPa | 0 mm | - | 0 W/m² | - |
| 1777778448 | 27.22° C | 21% | 1011.7 hPa | 0 mm | - | 0 W/m² | - |
| 1777778146 | 27.22° C | 21% | 1011.8 hPa | 0 mm | - | 0 W/m² | - |
| 1777777843 | 27.78° C | 20% | 1011.6 hPa | 0 mm | - | 0 W/m² | - |
| 1777777539 | 27.78° C | 20% | 1011.7 hPa | 0 mm | - | 0 W/m² | - |
| 1777777237 | 28.33° C | 19% | 1011.7 hPa | 0 mm | - | 0 W/m² | - |
| 1777776933 | 28.33° C | 19% | 1011.5 hPa | 0 mm | - | 0 W/m² | - |
| 1777776631 | 28.33° C | 19% | 1011.6 hPa | 0 mm | - | 0 W/m² | - |
| 1777776327 | 28.33° C | 19% | 1011.6 hPa | 0 mm | - | 0 W/m² | - |
| 1777776024 | 28.89° C | 19% | 1011.4 hPa | 0 mm | - | 0 W/m² | - |
| 1777775721 | 28.33° C | 20% | 1011.4 hPa | 0 mm | - | 0 W/m² | - |
| 1777775418 | 28.89° C | 19% | 1011.4 hPa | 0 mm | - | 0 W/m² | - |
| 1777775114 | 28.89° C | 18% | 1011.3 hPa | 0 mm | - | 0 W/m² | - |
| 1777774809 | 29.44° C | 20% | 1011.4 hPa | 0 mm | - | 1 W/m² | - |
| 1777774506 | 30° C | 18% | 1011.3 hPa | 0 mm | - | 1 W/m² | - |
| 1777774203 | 30.56° C | 18% | 1011.5 hPa | 0 mm | - | 2 W/m² | - |
| 1777773900 | 30.56° C | 18% | 1011.5 hPa | 0 mm | - | 4 W/m² | - |
| 1777773596 | 31.11° C | 16% | 1011.4 hPa | 0 mm | - | 7 W/m² | - |
| 1777773294 | 31.11° C | 16% | 1011.3 hPa | 0 mm | - | 11 W/m² | - |
| 1777772990 | 31.11° C | 17% | 1011.5 hPa | 0 mm | - | 15 W/m² | - |
* Rain latest hour (hover to see other rain measurements)
** Current wind speed in m/s (hover to see current wind gust speed)